Regional Weather Roundup
Issued by NWS

Home | Current Version | Previous Version | Graphics & Text | Print | Product List | Glossary On
Versions: 1 2 3 4 5 6 7 8 9 10 11 12 13 14 15 16 17 18 19 20 21 22 23 24 25 26 27 28 29 30 31 32 33 34 35 36 37 38 39 40 41 42 43 44 45 46 47 48 49 50
000
ASUS43 KBIS 222220
RWRND

NORTH DAKOTA REGIONAL WEATHER ROUNDUP
NATIONAL WEATHER SERVICE BISMARCK ND
500 PM CDT FRI MAY 22 2015

NOTE: "FAIR" INDICATES FEW OR NO CLOUDS BELOW 12,000 FEET WITH NO
SIGNIFICANT WEATHER AND/OR OBSTRUCTIONS TO VISIBILITY.


NDZ001>003-009>011-017-222300-
NORTHWEST NORTH DAKOTA

CITY           SKY/WX    TMP DP  RH WIND       PRES   REMARKS
WILLISTON      SUNNY     76  32  20 SE12G24   30.04F
MINOT          SUNNY     76  30  18 VRB5      30.08F
MINOT AFB      MOSUNNY   77  35  21 S13       30.07F
$$

NDZ018>021-031>035-040>046-222300-
SOUTHWEST NORTH DAKOTA

CITY           SKY/WX    TMP DP  RH WIND       PRES   REMARKS
BISMARCK       MOSUNNY   76  37  24 SE14      30.10F
DICKINSON      SUNNY     71  32  23 SE25G38   30.05S
GARRISON         N/A     74  34  23 S14       30.09F
HETTINGER ARPT MOSUNNY   68  32  26 S22G29    30.07F
$$

NDZ004>008-012>016-024-026-027-054-222300-
NORTHEAST NORTH DAKOTA

CITY           SKY/WX    TMP DP  RH WIND       PRES   REMARKS
GRAND FORKS    MOSUNNY   77  39  25 S12       30.12F
GRND FRKS AFB  SUNNY     78  39  24 SW5       30.13F
DEVILS LAKE    SUNNY     75  36  23 S16       30.12F
$$

NDZ022-023-025-028>030-036>039-047>053-222300-
SOUTHEAST NORTH DAKOTA

CITY           SKY/WX    TMP DP  RH WIND       PRES   REMARKS
FARGO          SUNNY     75  43  31 S13       30.14F
JAMESTOWN      SUNNY     74  34  23 SE13      30.12F
$$




USA.gov is the U.S. government's official web portal to all federal, state and local government web resources and services.